• In Uzbekistan
  • List of Countries
  • For 7 days
  • Water Temperature
  • Satellite Maps
  • Weather Map
  • Weather Widgets
  • user-avatar
    Login

    Hourly Weather Paralia

    Today, 16 January, Tuesday

    Time Temperature Precipitation Wind Pressure Humidity
    00:00 +10°C° 0.3 mm 3 mps 754 mmHg 94%
    01:00 +10°C° 0 mm 3 mps 754 mmHg 94%
    02:00 +10°C° 0.3 mm 3 mps 753 mmHg 94%
    03:00 +10°C° 0.3 mm 3 mps 753 mmHg 94%
    04:00 +10°C° 0.3 mm 3 mps 753 mmHg 93%
    05:00 +10°C° 0.5 mm 3 mps 752 mmHg 94%
    06:00 +10°C° 0.5 mm 3 mps 752 mmHg 94%
    07:00 +10°C° 0 mm 2 mps 752 mmHg 95%
    08:00 +12°C° 0.5 mm 2 mps 752 mmHg 91%
    09:00 +12°C° 0.5 mm 2 mps 752 mmHg 88%
    10:00 +13°C° 0.5 mm 2 mps 751 mmHg 85%
    11:00 +12°C° 0.5 mm 3 mps 751 mmHg 82%
    12:00 +13°C° 0.5 mm 3 mps 751 mmHg 80%
    13:00 +13°C° 0.5 mm 4 mps 750 mmHg 78%
    14:00 +12°C° 0.5 mm 3 mps 750 mmHg 81%
    15:00 +12°C° 0.5 mm 3 mps 750 mmHg 84%
    16:00 +11°C° 0.5 mm 3 mps 749 mmHg 87%
    17:00 +11°C° 0.4 mm 3 mps 749 mmHg 88%
    18:00 +11°C° 0.4 mm 3 mps 749 mmHg 89%
    19:00 +10°C° 0.4 mm 3 mps 749 mmHg 90%
    20:00 +10°C° 0.2 mm 3 mps 749 mmHg 90%
    21:00 +10°C° 0.2 mm 3 mps 749 mmHg 90%
    22:00 +10°C° 0.2 mm 3 mps 749 mmHg 91%
    23:00 +10°C° 0.1 mm 3 mps 749 mmHg 91%

    Tomorrow, 17 January, Wednesday

    Time Temperature Precipitation Wind Pressure Humidity
    00:00 +10°C° 0.1 mm 2 mps 749 mmHg 91%
    01:00 +10°C° 0.1 mm 2 mps 749 mmHg 92%
    02:00 +10°C° 0.1 mm 3 mps 748 mmHg 92%
    03:00 +10°C° 0.1 mm 3 mps 748 mmHg 93%
    04:00 +10°C° 0.1 mm 3 mps 747 mmHg 93%
    05:00 +11°C° 0.2 mm 3 mps 747 mmHg 93%
    06:00 +11°C° 0.2 mm 3 mps 747 mmHg 94%
    07:00 +11°C° 0.2 mm 3 mps 746 mmHg 94%
    08:00 +12°C° 0.2 mm 4 mps 746 mmHg 93%
    09:00 +12°C° 0.2 mm 4 mps 746 mmHg 92%
    10:00 +12°C° 0.2 mm 4 mps 745 mmHg 91%
    11:00 +13°C° 0.3 mm 4 mps 745 mmHg 91%
    12:00 +13°C° 0.3 mm 5 mps 744 mmHg 91%
    13:00 +13°C° 0.3 mm 5 mps 743 mmHg 91%
    14:00 +13°C° 0.2 mm 5 mps 743 mmHg 91%
    15:00 +13°C° 0.2 mm 5 mps 743 mmHg 91%
    16:00 +13°C° 0.2 mm 5 mps 742 mmHg 91%
    17:00 +13°C° 0.2 mm 5 mps 742 mmHg 91%
    18:00 +12°C° 0.2 mm 5 mps 742 mmHg 91%
    19:00 +12°C° 0.2 mm 5 mps 741 mmHg 92%
    20:00 +11°C° 0.9 mm 6 mps 741 mmHg 91%
    21:00 +11°C° 0.9 mm 8 mps 741 mmHg 90%
    22:00 +11°C° 0.9 mm 9 mps 741 mmHg 90%
    23:00 +10°C° 0.7 mm 9 mps 741 mmHg 87%

    Day after tomorrow, 18 January, Thursday

    Time Temperature Precipitation Wind Pressure Humidity
    00:00 +9°C° 0.7 mm 8 mps 741 mmHg 85%
    01:00 +7°C° 0.7 mm 8 mps 742 mmHg 82%
    02:00 +7°C° 0.1 mm 9 mps 742 mmHg 79%
    03:00 +6°C° 0.1 mm 9 mps 743 mmHg 76%
    04:00 +6°C° 0.1 mm 9 mps 743 mmHg 72%
    05:00 +5°C° 0.1 mm 9 mps 744 mmHg 71%
    06:00 +4°C° 0.1 mm 8 mps 746 mmHg 70%
    07:00 +4°C° 0.1 mm 7 mps 747 mmHg 69%
    08:00 +4°C° 0 mm 7 mps 748 mmHg 59%
    09:00 +5°C° 0 mm 7 mps 749 mmHg 50%
    10:00 +6°C° 0 mm 7 mps 750 mmHg 40%
    11:00 +8°C° 0 mm 7 mps 751 mmHg 39%
    12:00 +8°C° 0 mm 6 mps 751 mmHg 37%
    13:00 +8°C° 0 mm 6 mps 751 mmHg 36%
    14:00 +8°C° 0 mm 5 mps 751 mmHg 41%
    15:00 +8°C° 0 mm 4 mps 751 mmHg 45%
    16:00 +8°C° 0 mm 3 mps 752 mmHg 50%
    17:00 +7°C° 0 mm 3 mps 752 mmHg 53%
    18:00 +6°C° 0 mm 2 mps 753 mmHg 56%
    19:00 +6°C° 0 mm 2 mps 753 mmHg 59%
    20:00 +6°C° 0 mm 2 mps 753 mmHg 61%
    21:00 +5°C° 0 mm 2 mps 753 mmHg 63%
    22:00 +5°C° 0 mm 2 mps 753 mmHg 64%
    23:00 +5°C° 0 mm 2 mps 753 mmHg 68%

    19 January, Friday

    Time Temperature Precipitation Wind Pressure Humidity
    00:00 +5°C° 0 mm 2 mps 753 mmHg 71%
    01:00 +6°C° 0 mm 2 mps 753 mmHg 74%
    02:00 +5°C° 0 mm 2 mps 752 mmHg 77%
    03:00 +5°C° 0 mm 2 mps 752 mmHg 79%
    04:00 +5°C° 0 mm 2 mps 752 mmHg 82%
    05:00 +5°C° 0 mm 2 mps 752 mmHg 82%
    06:00 +5°C° 0 mm 2 mps 752 mmHg 81%
    07:00 +5°C° 0 mm 2 mps 752 mmHg 81%
    08:00 +7°C° 0 mm 2 mps 751 mmHg 76%
    09:00 +9°C° 0 mm 3 mps 751 mmHg 72%
    10:00 +11°C° 0 mm 3 mps 751 mmHg 67%
    11:00 +11°C° 0 mm 3 mps 751 mmHg 71%
    12:00 +11°C° 0 mm 3 mps 750 mmHg 74%
    13:00 +12°C° 0 mm 3 mps 750 mmHg 77%
    14:00 +11°C° 0.1 mm 3 mps 750 mmHg 80%
    15:00 +11°C° 0.1 mm 3 mps 749 mmHg 84%
    16:00 +11°C° 0.1 mm 3 mps 749 mmHg 87%
    17:00 +10°C° 0.1 mm 3 mps 749 mmHg 89%
    18:00 +10°C° 0.1 mm 3 mps 749 mmHg 91%
    19:00 +10°C° 0.1 mm 3 mps 749 mmHg 93%
    20:00 +10°C° 0.1 mm 3 mps 749 mmHg 93%
    21:00 +10°C° 0.1 mm 3 mps 749 mmHg 93%
    22:00 +10°C° 0.1 mm 3 mps 749 mmHg 93%
    23:00 +10°C° 0.1 mm 3 mps 749 mmHg 93%

    20 January, Saturday

    Time Temperature Precipitation Wind Pressure Humidity
    00:00 +10°C° 0.1 mm 3 mps 749 mmHg 93%
    01:00 +10°C° 0.1 mm 3 mps 748 mmHg 93%
    02:00 +11°C° 0.1 mm 3 mps 748 mmHg 93%
    03:00 +11°C° 0.1 mm 3 mps 748 mmHg 93%
    04:00 +11°C° 0.1 mm 3 mps 747 mmHg 93%
    05:00 +11°C° 0.2 mm 3 mps 747 mmHg 93%
    06:00 +11°C° 0.2 mm 3 mps 747 mmHg 93%
    07:00 +11°C° 0.2 mm 3 mps 747 mmHg 93%
    08:00 +11°C° 0.1 mm 4 mps 747 mmHg 90%
    09:00 +12°C° 0.1 mm 4 mps 747 mmHg 88%
    10:00 +12°C° 0.1 mm 4 mps 746 mmHg 85%
    11:00 +13°C° 0.2 mm 4 mps 746 mmHg 84%
    12:00 +13°C° 0.2 mm 5 mps 745 mmHg 83%
    13:00 +13°C° 0.2 mm 5 mps 744 mmHg 83%
    14:00 +13°C° 0.2 mm 5 mps 744 mmHg 83%
    15:00 +12°C° 0.2 mm 5 mps 743 mmHg 83%
    16:00 +12°C° 0.2 mm 4 mps 743 mmHg 83%
    17:00 +11°C° 0 mm 4 mps 742 mmHg 85%
    18:00 +11°C° 0 mm 4 mps 742 mmHg 86%
    19:00 +10°C° 0 mm 4 mps 742 mmHg 88%
    20:00 +8°C° 0 mm 4 mps 741 mmHg 87%
    21:00 +8°C° 0 mm 4 mps 740 mmHg 87%
    22:00 +8°C° 0 mm 4 mps 740 mmHg 86%
    23:00 +8°C° 0 mm 4 mps 739 mmHg 86%

    21 January, Sunday

    Time Temperature Precipitation Wind Pressure Humidity
    00:00 +8°C° 0 mm 4 mps 738 mmHg 85%
    01:00 +8°C° 0 mm 5 mps 736 mmHg 84%
    02:00 +8°C° 0.1 mm 5 mps 735 mmHg 83%
    03:00 +8°C° 0.1 mm 5 mps 734 mmHg 82%
    04:00 +8°C° 0.1 mm 5 mps 732 mmHg 82%
    05:00 +8°C° 0.5 mm 4 mps 732 mmHg 83%
    06:00 +8°C° 0.5 mm 4 mps 731 mmHg 85%
    07:00 +9°C° 0.5 mm 3 mps 730 mmHg 87%
    08:00 +10°C° 0.6 mm 3 mps 730 mmHg 85%
    09:00 +10°C° 0.6 mm 4 mps 730 mmHg 82%
    10:00 +11°C° 0.6 mm 4 mps 730 mmHg 80%
    11:00 +9°C° 1.8 mm 5 mps 730 mmHg 83%
    12:00 +8°C° 1.8 mm 5 mps 730 mmHg 86%
    13:00 +8°C° 1.8 mm 6 mps 730 mmHg 90%
    14:00 +8°C° 0.3 mm 7 mps 731 mmHg 87%
    15:00 +8°C° 0.3 mm 7 mps 731 mmHg 85%
    16:00 +6°C° 0.3 mm 7 mps 731 mmHg 83%
    17:00 +6°C° 0.4 mm 7 mps 732 mmHg 83%
    18:00 +7°C° 0.4 mm 6 mps 733 mmHg 84%
    19:00 +6°C° 0.4 mm 5 mps 733 mmHg 84%
    20:00 +6°C° 0.2 mm 5 mps 734 mmHg 84%
    21:00 +6°C° 0.2 mm 5 mps 734 mmHg 83%
    22:00 +6°C° 0.2 mm 5 mps 735 mmHg 83%
    23:00 +5°C° 0.3 mm 4 mps 735 mmHg 83%
    Show more